Probability
45 48 45 29 13 0 0 0 0 0 0 0 0 0 0 0 0 3 0 0 0 6 23 29 55 68 68 65 61 65 58 61 65 71 71 65 68 77 68 68 74 68 61 55 55 55 55 58 61
35 35 29 10 0 0 0 0 0 0 0 0 0 0 0 0 0 0 3 0 3 10 23 35 58 68 61 61 61 65 65 65 61 68 71 68 68 68 68 71 68 61 45 45 52 52 52 48 61
32 19 6 0 0 0 0 0 0 0 0 0 0 0 0 0 0 0 0 0 6 13 26 48 61 65 61 68 65 68 68 61 65 65 61 61 68 58 65 65 61 58 42 42 45 42 35 35 39
13 6 3 0 0 0 0 0 0 0 0 0 0 0 0 0 0 0 3 0 10 13 29 39 65 68 74 68 68 71 68 68 58 58 65 58 52 52 58 55 52 35 42 45 45 42 35 39 42
10 3 0 0 0 0 0 0 0 0 0 0 0 0 0 3 3 3 3 3 10 16 23 39 74 71 61 71 68 71 77 81 68 65 58 65 55 52 52 48 42 32 32 32 32 26 39 35 42
3 0 0 0 0 0 0 0 0 0 0 0 0 0 3 6 3 3 0 3 6 16 19 32 68 74 77 71 81 81 81 77 74 71 68 65 65 65 52 42 48 42 42 35 29 42 39 39 32
3 0 0 0 0 0 0 0 0 0 0 0 0 0 3 6 13 6 10 10 13 10 16 32 32 61 81 77 77 81 77 71 74 68 71 71 61 58 55 61 42 42 39 32 39 39 35 35 39
10 0 0 0 0 0 0 0 0 0 0 0 0 0 3 13 10 6 6 13 16 16 23 29 32 39 42 55 81 77 74 74 74 65 61 52 48 48 42 52 58 52 45 39 42 39 35 39 42
6 0 0 0 0 0 0 0 0 0 0 0 0 0 3 6 10 13 19 19 13 16 26 23 26 26 35 39 52 68 77 74 77 71 55 48 35 29 39 26 61 58 52 48 52 42 48 45 45
3 0 0 0 0 0 0 0 0 0 0 0 0 0 6 6 10 10 13 13 16 23 19 23 29 32 29 23 52 45 35 55 61 65 55 45 52 52 23 39 39 52 61 65 52 48 45 29 26
0 0 0 0 0 0 0 0 0 0 0 0 0 3 3 3 13 13 19 13 19 19 29 35 32 39 29 32 42 45 55 65 52 61 61 68 39 35 29 39 42 55 42 39 42 39 32 32 35
0 0 0 0 0 0 0 0 0 0 0 0 0 6 3 6 10 13 13 13 19 19 23 32 29 39 42 39 35 35 35 42 42 58 45 42 58 48 42 52 32 39 45 39 39 48 42 32 26
0 0 0 0 0 0 0 0 0 0 0 3 3 13 10 6 6 10 10 10 16 19 23 32 35 45 52 55 48 35 35 35 42 58 55 45 39 48 42 48 55 23 26 35 48 39 45 45 35
0 0 0 0 0 0 0 0 0 6 6 3 3 13 10 6 6 6 16 23 23 19 23 35 42 48 68 65 58 45 26 65 35 42 42 48 42 58 48 55 65 42 39 42 48 45 45 32 32
0 0 0 0 0 3 0 3 0 6 6 3 0 6 10 13 16 19 26 29 23 23 32 42 45 52 55 58 52 35 39 42 42 52 48 45 45 58 52 35 39 52 48 52 52 35 32 35 32
0 0 0 0 0 3 3 0 6 10 10 6 0 3 10 16 16 16 26 35 32 35 48 48 29 52 61 71 74 45 48 52 48 55 55 48 48 52 68 48 52 61 45 42 52 39 35 39 35
0 0 0 0 0 3 3 0 10 10 10 10 6 6 23 23 19 29 32 35 32 45 65 65 52 55 65 71 74 65 74 61 48 48 48 52 52 58 58 61 65 48 45 29 23 45 39 48 45
0 0 0 0 0 3 3 0 13 6 10 10 6 6 16 23 29 29 39 35 39 48 65 68 68 74 74 71 77 71 71 61 52 55 68 58 55 61 55 58 65 52 45 48 68 65 65 61 55
0 0 0 0 0 0 3 3 16 13 10 13 10 6 10 23 26 32 39 45 45 52 68 71 77 81 87 77 68 71 68 68 58 55 65 65 61 65 74 52 61 55 55 61 48 52 55 52 61
0 0 0 0 0 0 0 0 10 19 16 16 13 13 16 23 32 32 39 48 48 61 68 74 81 77 77 87 81 77 77 68 61 58 74 65 61 61 48 68 55 68 68 58 58 65 55 52 55
0 0 0 0 3 3 3 6 19 19 16 16 16 13 13 19 26 32 32 45 48 55 65 55 81 81 81 77 81 74 81 77 58 58 71 55 61 58 61 61 61 71 58 61 61 58 55 52 55
0 0 0 0 3 0 3 3 10 29 26 16 16 16 16 16 19 26 35 45 52 58 58 74 90 90 90 87 77 77 77 55 61 65 65 65 65 61 58 61 65 68 58 61 55 48 55 58 48
0 0 0 0 3 0 0 0 3 23 32 26 19 19 16 16 16 19 29 45 48 55 61 68 90 87 87 87 87 87 65 65 55 61 68 65 58 52 45 55 65 61 65 65 61 61 48 52 48
0 0 0 0 0 0 0 0 3 6 16 23 29 16 19 16 16 19 26 42 52 58 65 65 87 90 81 81 71 81 74 71 61 71 65 55 52 52 45 52 61 61 55 52 55 58 55 48 52
0 0 0 0 0 0 0 3 6 6 6 6 23 23 23 26 19 26 32 52 71 68 71 77 84 81 81 77 74 74 74 71 68 58 61 58 42 39 55 42 55 58 55 48 52 48 48 42 45
3 0 0 0 0 0 3 3 6 6 6 13 19 23 19 19 29 32 39 58 68 74 84 84 81 81 74 71 74 71 71 61 58 61 52 48 45 35 35 45 52 52 52 45 48 39 39 45 39
3 0 0 0 0 0 0 6 6 6 13 13 13 23 23 26 29 42 39 48 58 65 81 81 77 81 77 68 71 68 68 68 58 61 58 52 52 42 45 48 48 48 48 48 45 45 48 45 35
3 3 0 0 0 0 0 3 6 6 13 10 13 29 35 32 32 39 39 55 61 61 68 77 77 77 77 68 65 61 71 71 68 61 58 52 55 52 48 45 45 48 45 45 48 45 48 48 42
3 0 0 0 0 0 0 3 6 6 10 10 19 26 42 45 35 42 52 61 65 58 65 74 77 77 77 71 61 61 61 65 68 68 61 61 61 58 52 52 52 48 52 48 48 39 39 35 42
0 0 0 0 0 0 0 6 6 10 6 10 10 26 39 48 52 35 39 58 61 65 58 58 61 65 71 65 61 61 61 61 65 68 61 61 55 55 55 55 55 48 45 48 42 39 35 35 35
Height
5890 5889 5888 5887 5887 5887 5885 5883 5882 5880 5879 5878 5877 5876 5875 5876 5876 5878 5875 5873 5873 5873 5872 5872 5872 5872 5872 5873 5873 5874 5874 5875 5875 5876 5877 5877 5877 5878 5879 5880 5881 5882 5883 5884 5884 5885 5886 5887 5888
5892 5891 5891 5890 5890 5889 5887 5885 5883 5881 5880 5878 5878 5877 5877 5876 5876 5876 5875 5874 5874 5874 5873 5873 5873 5874 5874 5874 5874 5875 5875 5876 5877 5878 5878 5879 5879 5880 5881 5882 5883 5884 5884 5885 5886 5887 5888 5888 5889
5894 5894 5894 5894 5892 5891 5889 5886 5884 5882 5881 5880 5879 5879 5878 5878 5877 5876 5876 5876 5875 5874 5874 5874 5874 5875 5875 5876 5876 5876 5877 5877 5878 5879 5880 5880 5881 5882 5883 5883 5884 5885 5886 5886 5887 5888 5889 5889 5890
5897 5897 5898 5897 5894 5893 5891 5888 5886 5884 5883 5881 5881 5880 5879 5879 5878 5878 5877 5877 5876 5876 5875 5875 5875 5876 5877 5878 5878 5878 5878 5879 5880 5881 5881 5882 5883 5883 5884 5885 5885 5886 5887 5887 5888 5889 5889 5890 5891
5900 5901 5901 5899 5897 5895 5892 5890 5888 5886 5885 5883 5882 5881 5880 5880 5880 5880 5879 5879 5878 5878 5877 5877 5877 5878 5879 5879 5880 5880 5880 5881 5881 5882 5883 5883 5884 5885 5886 5886 5887 5887 5888 5888 5889 5890 5890 5891 5892
5905 5905 5905 5902 5899 5897 5894 5892 5890 5888 5887 5885 5884 5883 5882 5882 5882 5881 5881 5880 5880 5880 5880 5879 5880 5880 5881 5881 5881 5882 5882 5883 5883 5884 5884 5885 5885 5886 5887 5888 5888 5889 5889 5890 5890 5891 5891 5892 5892
5908 5908 5907 5904 5902 5899 5897 5895 5892 5890 5889 5888 5886 5885 5884 5884 5884 5883 5883 5883 5882 5882 5882 5882 5882 5882 5883 5883 5883 5884 5884 5884 5885 5885 5886 5886 5887 5887 5888 5889 5889 5890 5890 5891 5891 5891 5892 5892 5893
5911 5912 5909 5907 5905 5902 5900 5897 5895 5893 5891 5890 5889 5888 5887 5887 5886 5886 5885 5885 5885 5885 5885 5885 5885 5885 5885 5885 5886 5886 5886 5886 5887 5887 5887 5888 5888 5889 5889 5890 5890 5890 5891 5891 5892 5892 5893 5893 5894
5913 5915 5912 5910 5908 5905 5903 5900 5898 5896 5894 5892 5891 5890 5890 5889 5888 5888 5888 5888 5887 5888 5888 5888 5888 5888 5888 5888 5888 5888 5888 5888 5889 5889 5889 5890 5890 5890 5890 5891 5891 5892 5892 5892 5892 5893 5893 5893 5894
5916 5917 5915 5912 5910 5908 5905 5903 5901 5899 5897 5895 5894 5893 5892 5891 5891 5891 5891 5890 5890 5890 5890 5890 5890 5890 5890 5890 5890 5890 5890 5890 5891 5891 5891 5891 5891 5891 5892 5892 5892 5893 5893 5893 5893 5893 5893 5894 5894
5919 5918 5916 5915 5913 5911 5908 5906 5904 5902 5901 5899 5897 5896 5895 5894 5894 5894 5893 5893 5893 5893 5893 5893 5893 5893 5892 5892 5892 5892 5892 5892 5892 5892 5892 5893 5893 5893 5893 5893 5893 5893 5893 5893 5893 5894 5894 5894 5894
5921 5920 5918 5917 5915 5913 5911 5910 5908 5906 5904 5902 5901 5899 5898 5897 5897 5897 5896 5896 5896 5896 5895 5895 5895 5895 5895 5895 5894 5894 5894 5894 5894 5894 5894 5894 5894 5894 5894 5893 5893 5893 5893 5894 5894 5894 5894 5894 5894
5923 5922 5921 5919 5918 5916 5914 5913 5911 5909 5907 5905 5904 5903 5901 5900 5900 5899 5899 5899 5899 5898 5898 5898 5898 5898 5897 5897 5897 5896 5896 5896 5896 5896 5896 5896 5896 5895 5895 5894 5894 5894 5894 5894 5894 5894 5894 5894 5894
5926 5925 5923 5922 5921 5919 5917 5916 5914 5912 5911 5909 5907 5906 5905 5904 5903 5902 5902 5902 5901 5901 5900 5900 5900 5900 5899 5899 5899 5898 5898 5898 5898 5897 5897 5897 5897 5896 5896 5895 5895 5894 5894 5894 5894 5894 5894 5894 5894
5927 5927 5926 5925 5923 5922 5920 5919 5918 5916 5914 5912 5911 5910 5908 5907 5906 5906 5905 5905 5904 5903 5903 5902 5902 5902 5901 5901 5900 5900 5900 5900 5899 5899 5898 5898 5897 5897 5896 5896 5895 5894 5894 5894 5894 5894 5893 5893 5893
5929 5929 5929 5928 5926 5925 5925 5923 5921 5919 5917 5916 5915 5913 5912 5910 5909 5908 5908 5907 5907 5906 5905 5905 5904 5904 5903 5903 5902 5902 5901 5901 5900 5900 5899 5899 5898 5897 5897 5896 5896 5895 5894 5894 5894 5893 5893 5893 5892
5931 5932 5931 5930 5929 5927 5926 5926 5924 5922 5920 5919 5918 5916 5915 5914 5912 5911 5910 5910 5909 5909 5908 5907 5906 5906 5905 5904 5904 5903 5903 5902 5901 5901 5900 5899 5899 5898 5897 5897 5896 5895 5894 5894 5893 5893 5892 5892 5891
5933 5933 5932 5931 5930 5929 5928 5928 5926 5924 5923 5922 5920 5919 5918 5917 5915 5914 5913 5912 5912 5911 5910 5909 5908 5908 5907 5906 5905 5905 5904 5903 5902 5902 5901 5900 5899 5898 5897 5897 5896 5895 5894 5893 5893 5892 5891 5891 5890
5932 5932 5933 5932 5931 5931 5930 5929 5928 5927 5925 5924 5923 5922 5920 5919 5918 5917 5916 5915 5914 5913 5912 5911 5910 5910 5909 5908 5907 5906 5906 5905 5904 5902 5901 5900 5899 5898 5897 5897 5896 5895 5894 5893 5892 5891 5890 5890 5889
5930 5931 5932 5932 5932 5931 5931 5931 5930 5928 5927 5926 5925 5924 5923 5921 5920 5919 5918 5917 5916 5915 5914 5913 5912 5911 5910 5909 5908 5908 5907 5905 5904 5903 5902 5901 5900 5898 5897 5896 5895 5894 5893 5892 5891 5890 5890 5889 5888
5929 5931 5932 5932 5932 5932 5932 5932 5931 5930 5929 5928 5927 5926 5925 5924 5923 5921 5920 5919 5918 5917 5916 5915 5914 5913 5912 5911 5910 5909 5908 5906 5905 5904 5902 5901 5900 5898 5897 5896 5895 5894 5893 5892 5890 5889 5888 5887 5886
5927 5929 5930 5931 5932 5933 5933 5934 5933 5931 5930 5929 5928 5927 5926 5925 5924 5923 5922 5921 5920 5919 5918 5916 5916 5914 5913 5912 5911 5910 5909 5907 5906 5904 5903 5901 5900 5898 5897 5896 5895 5894 5892 5891 5889 5888 5887 5886 5885
5925 5927 5928 5929 5931 5932 5932 5934 5934 5932 5931 5930 5929 5928 5928 5927 5926 5925 5924 5923 5921 5920 5919 5918 5917 5916 5915 5913 5912 5911 5910 5908 5907 5905 5903 5902 5900 5898 5897 5895 5894 5893 5891 5890 5888 5887 5885 5884 5883
5922 5924 5926 5927 5930 5931 5931 5933 5934 5932 5931 5931 5930 5929 5928 5928 5927 5926 5925 5924 5923 5922 5921 5919 5918 5917 5916 5914 5913 5912 5910 5909 5907 5905 5904 5902 5900 5899 5897 5895 5894 5892 5891 5889 5887 5886 5884 5883 5881
5918 5922 5925 5927 5929 5930 5930 5930 5932 5930 5930 5930 5930 5929 5928 5928 5927 5927 5926 5925 5924 5923 5922 5920 5919 5918 5916 5915 5914 5912 5911 5909 5907 5905 5904 5902 5900 5899 5897 5895 5894 5892 5890 5888 5886 5884 5882 5881 5879
5915 5919 5923 5926 5928 5929 5927 5928 5930 5929 5929 5929 5929 5929 5928 5927 5927 5927 5926 5925 5924 5923 5922 5921 5920 5918 5917 5916 5914 5912 5911 5909 5907 5905 5904 5902 5900 5899 5897 5895 5893 5891 5889 5887 5885 5883 5881 5879 5877
5911 5914 5919 5922 5924 5926 5926 5926 5927 5927 5927 5927 5928 5927 5927 5927 5926 5926 5925 5925 5924 5923 5922 5921 5920 5918 5917 5916 5914 5912 5911 5909 5907 5905 5903 5902 5900 5898 5896 5894 5892 5890 5888 5886 5884 5882 5879 5877 5875
5907 5911 5914 5917 5920 5922 5923 5923 5925 5925 5925 5926 5926 5926 5926 5925 5925 5925 5924 5924 5923 5923 5922 5920 5919 5918 5917 5915 5914 5912 5910 5908 5906 5904 5902 5901 5899 5897 5895 5893 5891 5889 5887 5885 5883 5880 5878 5875 5873
5902 5906 5909 5913 5915 5919 5922 5924 5922 5922 5923 5924 5924 5924 5925 5924 5924 5924 5923 5923 5922 5921 5920 5920 5918 5917 5916 5914 5913 5911 5909 5907 5905 5903 5901 5899 5898 5896 5894 5892 5890 5888 5886 5883 5881 5879 5877 5874 5872
5897 5900 5904 5908 5910 5913 5918 5921 5918 5919 5920 5921 5922 5922 5922 5922 5922 5922 5921 5921 5920 5920 5919 5918 5917 5916 5914 5913 5911 5909 5907 5905 5903 5901 5900 5898 5896 5894 5892 5890 5888 5886 5883 5881 5879 5877 5875 5872 5870
Wind_Speed
19 19 18 18 19 16 13 12 12 12 11 10 10 9 9 9 8 9 9 8 8 7 7 8 9 9 9 10 10 11 12 11 11 11 12 12 13 13 12 12 12 12 12 11 10 10 9 8 8
19 19 18 19 18 15 15 14 14 13 12 11 11 11 11 10 10 10 10 9 8 8 7 8 9 9 10 10 10 11 12 11 11 12 12 12 13 12 12 12 11 11 11 10 9 9 8 9 9
19 18 18 19 18 17 16 16 15 14 13 12 12 12 11 11 10 10 10 10 9 8 8 8 9 9 10 10 11 11 11 11 12 12 12 12 12 12 11 11 10 10 10 9 8 8 7 8 8
19 19 19 19 18 18 17 17 17 15 14 13 13 12 12 11 11 10 10 11 10 9 9 9 10 10 10 11 11 12 12 12 12 12 12 12 12 10 10 10 10 10 9 8 8 7 7 8 8
19 19 19 18 18 19 18 18 17 16 14 14 14 13 13 12 11 11 11 12 12 11 11 11 12 12 12 11 11 12 12 13 12 12 11 11 11 10 9 9 9 9 8 8 7 7 7 7 7
19 20 18 17 19 20 19 18 17 16 16 14 14 14 13 12 12 12 13 12 13 12 12 13 13 13 12 12 12 12 12 12 12 13 12 11 10 9 9 8 8 7 7 7 6 6 6 6 6
19 19 18 19 20 20 20 19 18 17 17 16 15 15 14 13 13 13 13 13 13 12 12 13 13 13 13 13 12 12 12 12 12 11 11 11 10 9 8 8 7 7 7 7 6 6 5 5 5
19 19 19 20 20 21 21 20 20 19 18 17 16 15 14 14 14 13 13 13 13 12 13 13 13 12 12 12 12 12 11 11 11 11 10 10 9 8 8 7 6 6 6 6 6 5 5 5 5
18 18 18 20 20 20 21 21 20 20 18 18 17 15 15 15 15 14 14 13 13 13 13 13 12 12 11 11 11 11 10 10 10 10 9 8 8 8 7 6 6 5 5 5 5 5 5 4 4
17 17 18 19 20 20 20 21 21 20 20 18 17 16 15 15 15 14 14 14 14 14 14 14 13 13 12 12 11 11 11 10 9 9 9 8 8 7 6 5 5 5 5 5 5 4 4 4 3
15 16 17 18 19 19 20 20 20 20 20 19 18 17 16 16 15 15 14 14 15 14 14 14 14 13 13 12 11 11 11 11 10 9 9 9 8 7 6 5 4 5 5 4 4 4 4 3 3
14 15 16 17 18 19 19 20 20 19 19 19 18 18 17 16 15 15 14 14 14 14 14 13 13 12 12 12 11 10 10 10 9 9 8 8 8 7 6 5 4 4 4 4 3 3 3 3 3
12 13 14 15 16 17 19 19 19 19 19 19 18 17 17 17 16 15 14 14 14 13 13 13 12 12 11 11 11 10 9 9 9 8 8 7 7 7 6 5 4 3 3 3 3 3 3 3 3
10 11 13 14 15 16 17 18 18 18 18 18 19 18 17 17 16 15 14 13 13 12 12 12 11 11 11 11 10 9 8 8 7 7 6 6 6 5 5 5 4 3 3 2 1 1 2 2 2
9 10 11 12 13 14 16 17 17 17 17 18 18 17 17 16 16 15 15 14 13 13 12 12 11 11 11 10 9 9 8 7 6 6 6 5 4 4 3 4 3 3 2 1 0 1 1 2 3
8 9 9 10 11 12 14 14 15 16 16 16 16 15 15 15 15 14 14 13 12 12 12 11 11 10 10 10 9 8 7 7 6 6 5 5 4 3 3 3 2 2 2 1 1 1 1 3 3
5 6 6 7 8 10 12 12 13 14 14 15 15 14 14 14 14 14 14 13 12 11 11 11 10 10 10 9 8 8 7 6 6 6 5 5 5 4 3 4 3 3 3 2 3 3 3 4 4
3 3 4 4 6 8 10 10 11 12 13 13 14 13 13 13 13 13 12 12 12 11 11 10 10 9 9 9 8 8 8 7 6 6 6 6 5 5 4 4 4 3 3 3 4 4 4 4 5
5 3 2 2 4 6 7 8 9 10 10 11 12 12 12 12 12 12 11 11 11 11 11 10 10 9 9 9 8 8 8 8 7 6 6 6 6 6 5 5 4 4 3 4 4 4 5 5 6
6 5 3 1 1 3 4 6 7 7 8 9 10 11 11 10 11 11 11 11 10 10 10 10 9 9 9 9 8 8 7 7 7 7 7 7 7 7 7 6 5 4 4 5 5 5 5 6 7
8 7 5 3 1 1 2 4 4 5 6 7 8 8 9 9 10 10 10 10 10 10 9 9 9 9 9 8 8 8 7 7 8 8 8 8 8 8 8 7 6 5 5 6 6 6 7 7 8
10 9 8 5 3 2 1 0 2 3 4 5 5 6 7 8 9 9 9 9 9 9 9 9 9 9 9 9 8 8 8 8 8 8 8 9 8 8 8 8 7 7 7 7 7 7 7 8 9
13 11 9 8 6 5 3 2 3 2 2 3 4 4 5 6 7 8 8 8 8 9 9 9 8 9 9 9 9 9 9 9 9 9 9 9 9 9 9 9 9 8 8 8 8 8 8 9 9
16 14 11 9 8 8 6 5 4 3 1 2 3 3 3 4 5 6 6 7 7 8 8 8 8 8 9 9 9 9 9 9 9 10 10 10 9 9 9 10 10 9 9 10 9 10 10 9 10
19 16 13 10 10 10 9 8 6 5 3 2 2 2 2 2 3 4 4 5 6 6 7 8 7 7 8 8 9 9 9 10 10 10 10 10 10 10 10 11 11 11 11 11 11 11 10 10 10
21 19 16 14 12 11 11 10 8 6 4 3 3 3 3 2 2 2 3 3 5 6 6 6 6 7 7 8 9 9 9 10 10 10 10 10 10 10 10 11 11 11 12 11 11 11 11 11 11
23 21 19 16 14 12 12 11 9 8 6 5 5 5 4 4 3 3 3 3 4 5 6 6 6 7 7 8 9 9 10 11 11 10 10 10 10 10 11 11 12 12 12 12 12 13 12 11 11
25 22 21 19 16 14 13 12 11 9 8 7 7 6 6 5 4 4 4 4 5 5 6 6 7 7 8 9 10 10 11 12 11 11 10 10 11 11 11 12 13 13 14 13 13 14 13 12 11
27 25 23 21 18 15 14 14 13 12 10 9 8 8 7 6 6 6 6 6 6 6 6 7 7 8 8 9 10 11 12 12 12 11 11 11 11 12 12 13 13 14 14 14 14 14 13 13 13
29 27 25 23 22 19 16 15 15 14 12 11 10 9 8 8 7 8 7 7 7 7 8 8 8 8 9 9 10 11 12 12 12 12 12 12 12 12 13 13 14 14 14 15 14 14 14 14 14
Wind_Direction
66 65 65 64 64 66 72 74 76 79 83 86 87 90 91 94 98 100 101 102 106 106 108 107 110 107 111 116 121 123 125 123 122 121 123 124 124 126 125 127 126 124 124 125 123 123 128 132 136
66 65 65 64 65 66 70 73 74 77 80 82 84 86 85 89 95 97 97 98 102 101 107 107 107 105 107 113 116 121 124 124 122 123 124 125 123 127 128 127 127 127 126 126 124 125 133 136 140
65 64 64 65 65 67 69 71 72 73 77 80 83 84 82 87 94 97 94 93 95 98 100 106 112 112 108 112 118 119 123 125 127 127 126 125 125 127 130 129 131 131 128 129 130 128 133 139 139
66 65 64 64 64 65 66 68 70 70 74 78 82 82 82 85 91 95 95 94 97 97 97 101 108 113 113 114 121 118 124 124 128 130 129 129 126 126 128 129 132 132 130 131 133 132 136 138 139
67 67 65 62 63 64 65 66 68 70 73 76 80 82 83 86 90 92 95 96 99 97 98 104 109 113 115 118 120 120 123 126 128 127 127 129 130 129 125 124 127 130 132 130 132 135 138 135 135
69 70 70 65 63 62 62 64 67 69 70 74 79 83 85 85 89 92 94 99 100 100 100 103 107 109 111 115 116 119 125 127 126 127 127 123 120 124 125 128 131 132 133 133 133 133 133 133 136
73 73 70 66 63 61 61 63 67 68 70 71 77 83 85 86 90 92 93 96 98 100 102 104 106 106 106 107 111 111 116 122 120 121 122 123 122 120 124 128 129 130 130 132 137 134 134 138 141
73 71 68 66 65 62 61 63 66 67 68 70 75 81 84 86 87 90 92 95 97 98 99 103 103 104 105 105 107 110 112 115 114 115 120 122 121 120 120 122 120 117 118 122 134 136 138 143 148
73 71 70 68 65 63 61 62 64 66 66 67 73 78 83 84 87 91 91 95 98 99 100 101 101 101 101 103 104 104 106 110 111 113 115 118 117 113 113 116 115 116 118 119 125 124 130 141 149
74 75 71 69 66 63 62 61 62 63 63 66 71 75 81 85 88 88 90 95 99 100 100 101 100 99 99 99 99 99 101 104 107 108 108 109 111 110 112 118 118 119 121 120 123 127 130 139 149
75 75 72 68 65 63 62 61 62 63 63 64 70 74 80 85 88 89 90 94 97 99 100 99 99 99 98 97 96 97 96 97 97 99 101 103 106 107 112 117 120 120 122 122 125 130 136 147 156
73 73 71 68 65 62 62 60 62 63 63 64 67 68 77 85 85 89 91 93 96 97 96 97 99 99 98 97 95 95 94 93 92 92 95 96 100 101 101 104 108 112 120 126 129 137 148 159 171
74 73 70 68 65 63 62 60 61 64 63 63 65 67 75 78 80 86 91 92 93 96 96 97 98 97 94 93 90 90 93 94 93 93 93 93 96 92 91 88 95 100 118 122 124 129 154 172 186
78 75 71 68 66 65 63 62 62 64 64 64 65 68 73 77 78 81 90 91 91 92 93 93 94 93 93 93 88 89 90 91 90 89 86 89 90 83 74 67 74 77 97 114 130 154 178 200 213
82 76 70 67 66 65 65 61 62 64 64 64 66 68 69 73 77 80 82 84 83 86 87 87 89 90 89 89 86 83 85 83 81 77 77 81 81 78 65 55 54 49 58 63 293 259 248 257 262
84 76 67 65 65 63 64 58 59 62 63 63 64 67 68 69 71 77 79 79 79 81 81 81 82 83 85 85 83 79 77 75 70 67 64 63 62 56 46 32 27 13 15 351 326 307 281 272 269
84 84 74 66 65 62 63 59 57 59 61 61 62 64 66 69 69 72 74 76 77 76 76 76 77 76 77 78 77 74 70 67 66 61 53 47 37 29 16 7 12 354 342 339 333 310 298 283 280
140 108 83 66 64 64 62 58 55 56 59 60 59 60 63 65 66 68 69 70 72 71 70 71 72 72 73 71 68 67 62 58 56 51 41 34 29 22 9 358 357 352 328 320 332 332 313 298 288
176 160 133 75 64 67 62 56 57 56 57 58 56 57 61 62 62 65 66 67 67 66 66 67 69 70 69 65 62 59 55 52 47 43 32 20 16 14 6 354 351 342 327 326 325 322 315 309 303
189 192 193 177 74 70 63 52 56 57 57 55 55 55 57 60 60 60 61 62 64 63 62 63 64 64 63 59 56 53 48 41 38 34 28 18 14 9 6 5 0 352 337 331 333 331 319 309 307
206 207 208 211 217 81 75 38 47 53 53 53 52 52 53 55 56 55 56 59 61 60 58 59 60 57 54 51 50 48 44 37 31 25 21 17 13 11 14 14 4 352 337 331 329 326 325 320 314
215 214 214 221 219 246 170 297 9 36 41 45 48 50 50 49 50 51 53 53 55 55 56 57 57 53 50 50 46 42 38 34 29 26 23 19 17 16 17 12 5 356 347 334 326 320 316 314 312
220 222 221 224 227 236 231 211 285 340 18 28 39 44 43 42 40 43 45 48 51 50 52 54 53 49 46 46 43 40 35 30 26 25 23 19 17 16 14 10 6 357 352 345 335 323 316 313 311
222 222 224 225 226 237 238 229 254 279 312 353 11 22 26 31 31 34 38 42 46 47 45 46 45 43 42 40 38 36 33 28 24 21 19 17 18 16 13 9 4 358 351 348 342 333 320 316 312
219 218 225 230 233 240 242 240 244 258 270 299 328 349 355 359 13 25 33 31 37 39 36 37 37 35 33 31 27 26 24 21 18 16 14 14 12 9 6 3 1 358 354 348 344 339 331 320 315
222 219 221 225 235 244 247 244 245 254 257 273 297 314 322 325 331 354 10 7 15 14 15 19 22 21 19 17 15 15 13 12 10 7 6 5 3 0 358 357 357 355 352 347 345 341 336 328 321
224 222 223 230 235 236 239 239 243 247 253 261 270 283 299 302 304 310 327 336 343 346 350 355 359 359 359 359 2 4 3 1 1 359 357 356 356 354 352 351 350 348 347 344 342 341 337 330 322
224 225 225 228 231 236 245 244 240 245 251 257 265 273 288 287 290 292 293 307 318 322 330 343 346 346 347 349 350 351 350 349 349 350 347 346 348 347 345 344 343 342 343 342 340 339 339 333 326
224 225 227 232 232 231 239 244 242 246 249 253 258 263 275 282 285 286 285 287 294 305 318 328 334 336 336 337 339 342 343 342 341 340 339 339 338 336 338 338 339 338 337 337 336 337 338 337 332
227 226 227 231 235 234 234 244 245 246 248 250 254 259 267 273 277 279 277 276 281 293 304 312 317 323 325 327 330 333 335 336 336 334 332 332 332 331 333 335 334 333 335 336 334 332 333 332 331